Location: Unspecified
(0.0000°N, 0.0000°E)
Time: 01:14:30
(UTC+01:00)

IUS-9 SRM-1 - Visible Passes

Search period start: 23 March 2017 00:00
Search period end: 02 April 2017 01:00
Orbit: 242 x 19837 km, 26.5° (Epoch: 21 March)

Date Brightness Start Highest point End Pass type
(mag) Time Alt. Az. Time Alt. Az. Time Alt. Az.
23 Mar 7.9 01:20:21 10° WNW 01:50:31 22° NW 01:50:31 22° NW visible
23 Mar 7.7 22:04:37 10° W 01:06:20 31° NNW 01:06:20 31° NNW visible
24 Mar 7.5 20:25:21 10° W 00:21:11 38° NNW 00:22:08 38° NNW visible
25 Mar 7.5 19:19:57 10° WSW 23:25:27 43° NNW 23:37:55 38° N visible
26 Mar 3.1 06:56:14 17° SSE 06:56:14 17° SSE 06:56:52 10° SSE visible
26 Mar 7.5 19:23:08 10° WSW 23:19:36 49° NNW 23:53:39 33° NNE visible
27 Mar 7.7 18:30:15 10° WSW 20:37:39 60° WNW 23:09:18 23° NE visible
28 Mar 7.9 17:39:33 10° WSW 19:29:57 72° WNW 22:24:56 13° NE visible
29 Mar 8.1 16:50:14 10° WSW 18:20:27 85° WNW 21:36:49 10° NE visible
30 Mar 8.0 03:25:38 10° NW 03:29:24 13° NW 03:29:24 13° NW visible
30 Mar 8.3 16:01:48 10° SW 17:07:41 84° SE 20:46:10 10° NE visible
31 Mar 7.8 02:18:23 10° WNW 02:44:52 23° NW 02:44:52 23° NW visible
31 Mar 7.5 23:53:38 10° WNW 02:00:16 33° NNW 02:00:16 33° NNW visible
